• In Portugal
  • List of Countries
  • For 7 days
  • Water Temperature
  • Satellite Maps
  • Weather Map
  • Weather Widgets
  • user-avatar
    Login

    Hourly Weather Petki

    Today, 14 November, Wednesday

    Time Temperature Precipitation Wind Pressure Humidity
    00:00 -5°C° 0 mm 8 mps 751 mmHg 55%
    01:00 -5°C° 0 mm 8 mps 750 mmHg 57%
    02:00 -4°C° 0 mm 7 mps 749 mmHg 59%
    03:00 -6°C° 0.3 mm 7 mps 749 mmHg 62%
    04:00 -6°C° 0.3 mm 7 mps 748 mmHg 66%
    05:00 -6°C° 0.3 mm 7 mps 747 mmHg 70%
    06:00 -6°C° 0.6 mm 7 mps 747 mmHg 73%
    07:00 -6°C° 0.6 mm 7 mps 747 mmHg 77%
    08:00 -6°C° 0 mm 7 mps 747 mmHg 81%
    09:00 -5°C° 0.7 mm 6 mps 747 mmHg 83%
    10:00 -5°C° 0.7 mm 6 mps 747 mmHg 86%
    11:00 -5°C° 0.7 mm 6 mps 746 mmHg 88%
    12:00 -5°C° 0.3 mm 5 mps 746 mmHg 88%
    13:00 -5°C° 0.3 mm 5 mps 746 mmHg 89%
    14:00 -4°C° 0.3 mm 4 mps 746 mmHg 89%
    15:00 -4°C° 0.2 mm 4 mps 747 mmHg 90%
    16:00 -4°C° 0.2 mm 3 mps 747 mmHg 91%
    17:00 -4°C° 0.2 mm 3 mps 747 mmHg 92%
    18:00 -3°C° 0.1 mm 2 mps 747 mmHg 92%
    19:00 -3°C° 0.1 mm 2 mps 748 mmHg 93%
    20:00 -3°C° 0.1 mm 2 mps 748 mmHg 93%
    21:00 -1°C° 0 mm 1 mps 748 mmHg 94%
    22:00 -1°C° 0 mm 1 mps 749 mmHg 94%
    23:00 -1°C° 0 mm 1 mps 749 mmHg 94%

    Tomorrow, 15 November, Thursday

    Time Temperature Precipitation Wind Pressure Humidity
    00:00 -1°C° 0 mm 1 mps 749 mmHg 94%
    01:00 -1°C° 0 mm 1 mps 750 mmHg 95%
    02:00 -1°C° 0 mm 1 mps 750 mmHg 95%
    03:00 -1°C° 0 mm 1 mps 751 mmHg 95%
    04:00 -1°C° 0 mm 1 mps 751 mmHg 95%
    05:00 -1°C° 0 mm 1 mps 751 mmHg 95%
    06:00 -1°C° 0 mm 1 mps 752 mmHg 95%
    07:00 -1°C° 0 mm 1 mps 752 mmHg 95%
    08:00 -1°C° 0 mm 1 mps 753 mmHg 95%
    09:00 0°C° 0 mm 1 mps 753 mmHg 95%
    10:00 0°C° 0 mm 1 mps 754 mmHg 94%
    11:00 +1°C° 0 mm 1 mps 754 mmHg 93%
    12:00 +1°C° 0.1 mm 1 mps 755 mmHg 94%
    13:00 +1°C° 0.1 mm 1 mps 755 mmHg 95%
    14:00 +2°C° 0.1 mm 1 mps 755 mmHg 95%
    15:00 +1°C° 0 mm 1 mps 756 mmHg 95%
    16:00 +1°C° 0 mm 1 mps 756 mmHg 96%
    17:00 +1°C° 0 mm 1 mps 756 mmHg 96%
    18:00 +1°C° 0 mm 1 mps 757 mmHg 96%
    19:00 +1°C° 0 mm 1 mps 757 mmHg 96%
    20:00 -1°C° 0 mm 2 mps 758 mmHg 95%
    21:00 -1°C° 0 mm 2 mps 758 mmHg 95%
    22:00 +1°C° 0 mm 1 mps 759 mmHg 95%
    23:00 0°C° 0 mm 1 mps 759 mmHg 95%

    Day after tomorrow, 16 November, Friday

    Time Temperature Precipitation Wind Pressure Humidity
    00:00 +1°C° 0 mm 1 mps 759 mmHg 95%
    01:00 +1°C° 0 mm 1 mps 760 mmHg 94%
    02:00 +1°C° 0 mm 1 mps 760 mmHg 94%
    03:00 0°C° 0 mm 1 mps 760 mmHg 94%
    04:00 0°C° 0 mm 1 mps 760 mmHg 94%
    05:00 -1°C° 0 mm 1 mps 761 mmHg 94%
    06:00 -1°C° 0 mm 1 mps 761 mmHg 94%
    07:00 -1°C° 0 mm 1 mps 761 mmHg 93%
    08:00 -1°C° 0 mm 1 mps 762 mmHg 93%
    09:00 -1°C° 0 mm 1 mps 762 mmHg 91%
    10:00 0°C° 0 mm 1 mps 762 mmHg 89%
    11:00 +1°C° 0 mm 1 mps 762 mmHg 87%
    12:00 +1°C° 0 mm 1 mps 762 mmHg 87%
    13:00 +1°C° 0 mm 1 mps 762 mmHg 87%
    14:00 +2°C° 0 mm 1 mps 763 mmHg 88%
    15:00 +1°C° 0 mm 1 mps 763 mmHg 88%
    16:00 0°C° 0 mm 1 mps 763 mmHg 88%
    17:00 -1°C° 0 mm 1 mps 763 mmHg 88%
    18:00 -1°C° 0 mm 1 mps 763 mmHg 88%
    19:00 -2°C° 0 mm 1 mps 763 mmHg 87%
    20:00 -2°C° 0 mm 1 mps 763 mmHg 86%
    21:00 -2°C° 0 mm 1 mps 763 mmHg 84%
    22:00 -2°C° 0 mm 1 mps 763 mmHg 83%
    23:00 -2°C° 0 mm 1 mps 763 mmHg 81%

    17 November, Saturday

    Time Temperature Precipitation Wind Pressure Humidity
    00:00 -2°C° 0 mm 1 mps 763 mmHg 80%
    01:00 -4°C° 0 mm 0 mps 763 mmHg 78%
    02:00 -4°C° 0 mm 0 mps 763 mmHg 77%
    03:00 -4°C° 0 mm 0 mps 763 mmHg 77%
    04:00 -4°C° 0 mm 0 mps 763 mmHg 77%
    05:00 -4°C° 0 mm 0 mps 762 mmHg 77%
    06:00 -3°C° 0 mm 1 mps 762 mmHg 77%
    07:00 -3°C° 0 mm 1 mps 762 mmHg 78%
    08:00 -3°C° 0 mm 1 mps 763 mmHg 79%
    09:00 -2°C° 0 mm 1 mps 762 mmHg 78%
    10:00 -1°C° 0 mm 1 mps 762 mmHg 77%
    11:00 +1°C° 0 mm 1 mps 762 mmHg 76%
    12:00 +1°C° 0 mm 1 mps 761 mmHg 79%
    13:00 -1°C° 0 mm 2 mps 761 mmHg 81%
    14:00 -1°C° 0 mm 2 mps 760 mmHg 84%
    15:00 -2°C° 0 mm 2 mps 760 mmHg 86%
    16:00 -2°C° 0 mm 2 mps 759 mmHg 89%
    17:00 -4°C° 0 mm 3 mps 759 mmHg 92%
    18:00 -4°C° 0 mm 3 mps 758 mmHg 92%
    19:00 -2°C° 0 mm 3 mps 758 mmHg 93%
    20:00 -2°C° 0 mm 3 mps 757 mmHg 94%
    21:00 -1°C° 0 mm 3 mps 757 mmHg 94%
    22:00 -1°C° 0 mm 3 mps 756 mmHg 94%
    23:00 -2°C° 0 mm 4 mps 755 mmHg 94%

    18 November, Sunday

    Time Temperature Precipitation Wind Pressure Humidity
    00:00 -2°C° 0 mm 4 mps 755 mmHg 95%
    01:00 -1°C° 0 mm 4 mps 754 mmHg 95%
    02:00 -1°C° 0 mm 4 mps 753 mmHg 95%
    03:00 -1°C° 0.1 mm 4 mps 752 mmHg 96%
    04:00 -1°C° 0.1 mm 4 mps 751 mmHg 96%
    05:00 -1°C° 0.1 mm 5 mps 751 mmHg 96%
    06:00 -1°C° 0.1 mm 4 mps 750 mmHg 96%
    07:00 -1°C° 0.1 mm 4 mps 749 mmHg 96%
    08:00 -1°C° 0.1 mm 4 mps 749 mmHg 97%
    09:00 0°C° 0.1 mm 4 mps 748 mmHg 97%
    10:00 0°C° 0.1 mm 4 mps 748 mmHg 96%
    11:00 0°C° 0.1 mm 4 mps 748 mmHg 96%
    12:00 0°C° 0.1 mm 4 mps 747 mmHg 96%
    13:00 0°C° 0.1 mm 4 mps 747 mmHg 95%
    14:00 0°C° 0.1 mm 5 mps 747 mmHg 94%
    15:00 0°C° 0.2 mm 5 mps 747 mmHg 93%
    16:00 0°C° 0.2 mm 5 mps 746 mmHg 93%
    17:00 -1°C° 0.2 mm 5 mps 746 mmHg 92%
    18:00 -1°C° 0.1 mm 5 mps 746 mmHg 92%
    19:00 -1°C° 0.1 mm 5 mps 746 mmHg 92%
    20:00 -1°C° 0.1 mm 5 mps 746 mmHg 92%
    21:00 -1°C° 0.1 mm 5 mps 746 mmHg 91%
    22:00 -1°C° 0.1 mm 5 mps 746 mmHg 91%
    23:00 -1°C° 0.1 mm 5 mps 745 mmHg 90%

    19 November, Monday

    Time Temperature Precipitation Wind Pressure Humidity
    00:00 -1°C° 0.1 mm 5 mps 746 mmHg 90%
    01:00 -1°C° 0.1 mm 5 mps 746 mmHg 89%
    02:00 -1°C° 0.1 mm 6 mps 746 mmHg 89%
    03:00 -2°C° 0.2 mm 6 mps 746 mmHg 89%
    04:00 -2°C° 0.2 mm 6 mps 746 mmHg 89%
    05:00 -2°C° 0.2 mm 6 mps 746 mmHg 89%
    06:00 -2°C° 0.1 mm 6 mps 747 mmHg 89%
    07:00 -2°C° 0.1 mm 6 mps 747 mmHg 89%
    08:00 -2°C° 0.1 mm 6 mps 747 mmHg 89%
    09:00 -1°C° 0 mm 5 mps 748 mmHg 88%
    10:00 -1°C° 0 mm 5 mps 748 mmHg 88%
    11:00 -1°C° 0 mm 5 mps 748 mmHg 88%
    12:00 -1°C° 0.1 mm 5 mps 748 mmHg 88%
    13:00 -1°C° 0.1 mm 5 mps 748 mmHg 88%
    14:00 0°C° 0.1 mm 5 mps 748 mmHg 88%
    15:00 -1°C° 0.1 mm 5 mps 749 mmHg 88%
    16:00 -1°C° 0.1 mm 5 mps 749 mmHg 88%
    17:00 -2°C° 0.1 mm 5 mps 749 mmHg 88%
    18:00 -2°C° 0 mm 5 mps 749 mmHg 88%
    19:00 -2°C° 0 mm 5 mps 749 mmHg 88%
    20:00 -2°C° 0 mm 5 mps 749 mmHg 88%
    21:00 -2°C° 0.1 mm 5 mps 749 mmHg 88%
    22:00 -2°C° 0.1 mm 5 mps 750 mmHg 88%
    23:00 -2°C° 0.1 mm 5 mps 750 mmHg 88%
    Show more